Weather History for Monticello, KY

Change the Weather History Date:

Monday, March 4, 2013

  Actual Average Record
Temperature  
Mean Temperature 32 °F -  
Max Temperature 50 °F 58 °F 83 °F (1976)
Min Temperature 14 °F 37 °F 12 °F (1968)
Degree Days  
Heating Degree Days 33    
Moisture  
Dew Point 22 °F    
Average Humidity 57    
Maximum Humidity 96    
Minimum Humidity 33    
Precipitation  
Precipitation 0.00 in - - ()
Sea Level Pressure  
Sea Level Pressure 30.11 in    
Wind  
Wind Speed 4 mph (NNW)    
Max Wind Speed 10 mph    
Max Gust Speed 18 mph    
Visibility 10 miles    
Events Rain    
Averages and records for this station are not official NWS values.
T = Trace of Precipitation, MM = Missing Value Source: NWS Daily Summary

Daily Weather History Graph

Daily Weather History Graph

Search for Another Location

Airport:

Trip Planner

Search our weather history database for the weather conditions in past years. The results will help you decide how hot, cold, wet, or windy it might be!

Date:

Astronomy

Mar. 04, 2013 Rise Set
Actual Time 6:05 AM CST 5:36 PM CST
Civil Twilight 5:39 AM CST 6:02 PM CST
Nautical Twilight 5:09 AM CST 6:32 PM CST
Astronomical Twilight 4:39 AM CST 7:02 PM CST
Moon 12:08 AM CST (3/4) 10:24 AM CST (3/4)
Length of Visible Light 12h 22m
Length of Day
11h 31m
Waning Gibbous, 52% of the Moon is Illuminated
Mar 4
Waning Gibbous
Mar 4
Last Quarter
Mar 11
New
Mar 19
First Quarter
Mar 27
Full

Hourly Weather History & Observations

Time (CST) Temp. Windchill Dew Point Humidity Pressure Visibility Wind Dir Wind Speed Gust Speed Precip Events Conditions
12:56 AM 16.2 °F - 15.1 °F 95% 30.19 in 10.0 mi Calm Calm - N/A   Clear
1:56 AM 17.1 °F - 15.1 °F 92% 30.19 in 10.0 mi Calm Calm - N/A   Clear
3:56 AM 16.2 °F - 14.0 °F 91% 30.20 in 9.0 mi Calm Calm - N/A   Clear
4:56 AM 14.0 °F - 12.0 °F 92% 30.23 in 10.0 mi Calm Calm - N/A   Clear
6:56 AM 19.0 °F - 18.1 °F 96% 30.23 in 9.0 mi Calm Calm - N/A   Clear
7:56 AM 29.1 °F - 21.0 °F 72% 30.23 in 10.0 mi Calm Calm - N/A   Partly Cloudy
8:56 AM 34.0 °F 26.6 °F 21.0 °F 59% 30.22 in 10.0 mi North 9.2 mph - N/A   Clear
9:56 AM 37.9 °F 30.9 °F 20.1 °F 49% 30.20 in 10.0 mi NNW 10.4 mph - N/A   Partly Cloudy
10:56 AM 39.9 °F 35.1 °F 19.0 °F 43% 30.19 in 10.0 mi NNW 6.9 mph - N/A   Scattered Clouds
11:56 AM 41.9 °F 38.2 °F 18.1 °F 38% 30.15 in 10.0 mi NNW 5.8 mph - N/A   Mostly Cloudy
12:56 PM 45.0 °F 41.2 °F 17.1 °F 33% 30.12 in 10.0 mi North 6.9 mph - N/A   Partly Cloudy
1:56 PM 46.9 °F - 21.0 °F 36% 30.09 in 10.0 mi WNW 9.2 mph - N/A   Mostly Cloudy
2:56 PM 47.8 °F - 23.0 °F 38% 30.06 in 10.0 mi NW 9.2 mph - N/A   Clear
3:56 PM 50.0 °F - 24.1 °F 36% 30.04 in 10.0 mi WNW 9.2 mph - N/A   Clear
4:56 PM 50.0 °F - 25.2 °F 38% 30.03 in 10.0 mi WNW 6.9 mph - N/A   Clear
5:56 PM 47.8 °F - 25.2 °F 41% 30.01 in 10.0 mi Variable 4.6 mph - N/A   Clear
6:56 PM 46.9 °F - 26.1 °F 44% 30.00 in 10.0 mi NW 10.4 mph - N/A   Partly Cloudy
7:56 PM 45.0 °F 42.6 °F 28.0 °F 52% 30.04 in 10.0 mi North 4.6 mph - N/A   Overcast
8:56 PM 45.9 °F 41.2 °F 26.1 °F 46% 30.04 in 10.0 mi NNW 9.2 mph - N/A   Clear
9:56 PM 45.0 °F 43.5 °F 27.1 °F 50% 30.04 in 10.0 mi NNW 3.5 mph - N/A   Partly Cloudy
10:56 PM 43.9 °F 39.3 °F 30.0 °F 58% 30.02 in 10.0 mi North 8.1 mph - 0.00 in Rain Light Rain
11:56 PM 43.9 °F 38.8 °F 32.0 °F 63% 29.99 in 10.0 mi North 9.2 mph 18.4 mph 0.00 in Rain Light Rain